Flag for Germany Weather past 2 weeks in Zweibrücken, Rhineland-Palatinate, Germany

Now
32 °F

Low clouds.


Feels Like: 25 °F
Forecast: 23 / 35 °F
Wind: 8 mph from West

Location: Saarbruecken / Ensheim

Current Time: Feb 1, 2015 at 5:27:41 AM

Latest Report: Feb 1, 2015 at 4:50 AM


Visibility: 5 mi

Pressure: 29.15 "Hg

Humidity: 100%

Dew point: 32 °F

Location of ZweibrückenLocation

Historic Weather in Zweibrücken — Graph

°F

Zweibrücken temperature yesterday

Maximum temperature yesterday: 34 °F (at 12:50 PM)
Minimum temperature yesterday: 30 °F (at 12:20 AM)
Average temperature yesterday: 32 °F

Past Weeks' High & Low Weather Summary

 TemperatureHumidityPressure
High39 °F (Jan 17, 11:50 AM)100% (Jan 17, 3:20 AM)30.42 "Hg (Jan 17, 3:20 AM)
Low23 °F (Jan 25, 3:50 AM)75% (Jan 18, 3:20 PM)28.74 "Hg (Jan 30, 12:20 AM)
Average32 °F94%29.83 "Hg
* Reported Jan 17 3:20 AM — Feb 1 3:50 AM, Zweibrücken, Weather by CustomWeather, © 2014

Note: Actual official high and low records may vary slightly from our data, if they occured in-between our weather recording intervals... More about our weather records

Advertising

Zweibrücken weather history for previous 24 hours

 ConditionsComfort  
Time TempWeatherWind HumidityBarometerVisibility
3:50 AM
Feb 1
32 °FLow clouds.8 mph100%29.15 "Hg5 mi
3:20 AM32 °FLow clouds.8 mph100%29.12 "Hg5 mi
2:50 AM32 °FLight snow. Low clouds.7 mph100%29.12 "Hg5 mi
2:20 AM32 °FLight snow. Low clouds.9 mph100%29.12 "Hg5 mi
1:50 AM32 °FLight snow. Low clouds.10 mph100%29.09 "Hg4 mi
1:20 AM32 °FLight snow. Ice fog.12 mph100%29.09 "Hg2 mi
12:50 AM32 °FLight snow. Ice fog.15 mph100%29.09 "Hg2 mi
12:20 AM32 °FLight snow. Ice fog.14 mph100%29.09 "Hg2 mi
11:50 PM
Jan 31
32 °FSnow. Ice fog.13 mph100%29.09 "Hg1 mi
11:20 PM32 °FLight snow. Ice fog.10 mph100%29.09 "Hg2 mi
10:50 PM32 °FSnow. Low clouds.9 mph100%29.09 "Hg1 mi
10:20 PM32 °FSnow. Mostly cloudy.12 mph100%29.09 "Hg2 mi
9:50 PM32 °FLight snow. Overcast.12 mph100%29.09 "Hg2 mi
9:20 PM32 °FLight snow. Partly cloudy.9 mph100%29.12 "Hg4 mi
8:50 PM32 °FPartly cloudy.6 mph100%29.12 "HgN/A
8:20 PM32 °FPassing clouds.3 mph93%29.12 "HgN/A
7:50 PM32 °FPassing clouds.5 mph93%29.12 "HgN/A
7:20 PM32 °FPassing clouds.8 mph93%29.09 "HgN/A
6:50 PM32 °FPassing clouds.8 mph100%29.09 "HgN/A
6:20 PM32 °FPartly cloudy.7 mph100%29.09 "HgN/A
5:50 PM32 °FPassing clouds.7 mph100%29.09 "HgN/A
5:20 PM32 °FPartly sunny.8 mph100%29.09 "HgN/A
4:20 PM34 °FPartly sunny.8 mph93%29.06 "Hg4 mi
3:50 PM34 °FFog.8 mph93%29.03 "Hg3 mi
3:20 PM32 °FIce fog.8 mph100%29.03 "Hg2 mi
2:50 PM32 °FSnow. Ice fog.8 mph100%29.03 "Hg1 mi
2:20 PM32 °FLight snow. Ice fog.6 mph100%29.03 "Hg2 mi
1:50 PM34 °FLight snow. Fog.2 mph93%29.03 "Hg1 mi
1:20 PM34 °FLight snow. Fog.5 mph93%29.03 "Hg2 mi
12:50 PM34 °FLight snow. Fog.6 mph93%29.03 "Hg2 mi
12:20 PM32 °FLight snow. Ice fog.7 mph100%29.03 "Hg1 mi
11:50 AM32 °FLight snow. Ice fog.8 mph100%29.03 "Hg2 mi
11:20 AM32 °FLight snow. Ice fog.6 mph100%29.03 "Hg2 mi
10:50 AM32 °FLight snow. Ice fog.6 mph100%29.03 "Hg2 mi
10:20 AM32 °FLight snow. Broken clouds.7 mph93%29.03 "Hg4 mi
9:50 AM32 °FLight snow. Broken clouds.7 mph93%29.03 "Hg4 mi
9:20 AM32 °FLight snow. Broken clouds.7 mph93%29.03 "Hg5 mi
8:50 AM32 °FBroken clouds.7 mph93%29.03 "Hg5 mi
8:20 AM30 °FPartly sunny.6 mph100%29.00 "Hg5 mi
7:50 AM30 °FPassing clouds.8 mph100%29.00 "Hg5 mi
7:20 AM30 °FPassing clouds.6 mph100%29.00 "Hg5 mi
6:50 AM30 °FLight snow. Passing clouds.7 mph100%29.00 "Hg4 mi
6:20 AM30 °FLight snow. Passing clouds.6 mph100%29.00 "Hg4 mi
5:50 AM30 °FLight snow. Low clouds.6 mph100%29.00 "Hg5 mi
5:20 AM30 °FLight snow. Mostly cloudy.7 mph100%29.00 "Hg5 mi
Weather by CustomWeather, © 2014

See weather overviewHow to use our weather pages